Regional Weather Roundup
Issued by NWS

Home | Current Version | Previous Version | Graphics & Text | Print | Product List | Glossary Off
Versions: 1 2 3 4 5 6 7 8 9 10 11 12 13 14 15 16 17 18 19 20 21 22 23 24 25 26 27 28 29 30 31 32 33 34 35 36 37 38 39 40 41 42 43 44 45 46 47 48 49 50

000
ASUS43 KDMX 042101
RWRIA

WEATHER ROUNDUP FOR IOWA
NATIONAL WEATHER SERVICE DES MOINES IA
300 PM CST SUN DEC 04 2016

NOTE: "FAIR" INDICATES FEW OR NO CLOUDS BELOW 12,000 FEET WITH NO
SIGNIFICANT WEATHER AND/OR OBSTRUCTIONS TO VISIBILITY.

* - THESE STATIONS ARE NOT NWS STATIONS...THUS NOT UNDER NWS
QUALITY CONTROL.  THEY ALSO DO NOT REPORT WEATHER SUCH
AS PRECIPITATION OR FOG.

IAZ001>003-012>014-020>022-031>034-043>046-042200-
   NORTHWEST IOWA

CITY           SKY/WX    TMP DP  RH WIND       PRES   REMARKS
CARROLL *      PTSUNNY   37  36  93 SW12      29.87S WCI  30
CHEROKEE *     SUNNY     45  35  69 W14       29.83S
DENISON *      SUNNY     43  36  75 SW9       29.84F
LE MARS *      SUNNY     48  32  53 W9        29.83F
ORANGE CITY *  SUNNY     45  36  70 W6        29.82S
SHELDON *      SUNNY     45  34  65 W14G20    29.80S
SIOUX CITY     SUNNY     51  33  50 W10       29.84F
SPENCER        SUNNY     45  34  65 W20G29    29.81S
STORM LAKE *   SUNNY     39  37  93 SW13      29.83S WCI  32
$$

IAZ055>058-069>071-079>083-090>094-042200-
   SOUTHWEST IOWA

CITY           SKY/WX    TMP DP  RH WIND       PRES   REMARKS
ATLANTIC *     PTSUNNY   37  34  87 SW7       29.90S WCI  32
AUDUBON *      MOSUNNY   37  34  87 W3        29.89S FOG
CLARINDA *       N/A     41  37  87 SW8       29.94F
COUNCIL BLFS * SUNNY     37  34  87 SW7       29.90S WCI  32
CRESTON *      CLOUDY    37  34  87 W13       29.92R WCI  29
HARLAN  *      SUNNY     37  36  93 SW8       29.91F WCI  31
LAMONI         CLOUDY    38  34  85 W7        29.92R WCI  33
RED OAK *      MOSUNNY   41  36  81 SW9       29.92R
SHENANDOAH *   MOSUNNY   43  37  81 SW8       29.93S
$$

IAZ047>049-059>061-072>074-084-042200-
   CENTRAL IOWA

CITY           SKY/WX    TMP DP  RH WIND       PRES   REMARKS
AMES           CLOUDY    34  33  96 W9        29.89S WCI  27
ANKENY *       CLOUDY    36 N/A N/A W7        29.91R WCI  30
BOONE *        CLOUDY    34  32  93 W13       29.87S WCI  25
CHARITON *       N/A     37  36  93 W9        29.90S WCI  31
DES MOINES     CLOUDY    38  34  85 W10       29.90R FOG     WCI  31
GRINNELL*      CLOUDY    33  33  96 W7        29.89S WCI  27
KNOXVILLE *    CLOUDY    37  34  87 W12       29.88S WCI  30
MARSHALLTOWN   CLOUDY    34  32  92 W12       29.87S WCI  25
NEWTON *       CLOUDY    34  32  93 W8        29.88F WCI  27
PELLA *        CLOUDY    36  33  89 W9        29.91R WCI  29
PERRY *        PTSUNNY   36  35  94 W15       29.89S FOG     WCI  27
$$

IAZ004>006-015-016-023>025-035-036-042200-
   NORTH CENTRAL IOWA

CITY           SKY/WX    TMP DP  RH WIND       PRES   REMARKS
ALGONA *       CLOUDY    37  36  93 SW13      29.82F WCI  29
CLARION *      CLOUDY    34  34 100 SW14      29.85S WCI  24
ESTHERVILLE    SUNNY     43  36  76 W14       29.79F
FORT DODGE *   CLOUDY    36  30  80 SW10      29.86S WCI  28
MASON CITY     CLOUDY    34  30  85 SW8       29.84F WCI  27
WEBSTER CITY * CLOUDY    34  34 100 SW12      29.85S WCI  25
IOWA FALLS *   CLOUDY    34  32  92 SW13      29.87S WCI  25
$$

IAZ007>011-017>019-026>030-037>042-050>054-066-042200-
   NORTHEAST IOWA

CITY           SKY/WX    TMP DP  RH WIND       PRES   REMARKS
CEDAR RAPIDS   CLOUDY    32  32 100 S8        29.88F FOG     WCI  25
CHARLES CITY * CLOUDY    34  34 100 SW9       29.85S WCI  26
CLINTON *      LGT SNOW  33  31  92 SE8       29.92F FOG     WCI  26
DECORAH *      CLOUDY    32  32 100 SW10      29.83F FOG     WCI  24
DUBUQUE        LGT SNOW  30  29  96 S9        29.88F VSB 1   WCI  22
MONTICELLO *   CLOUDY    32  32 100 S10       29.89S FOG     WCI  24
OELWEIN *      CLOUDY    32  32 100 SW10      29.86F FOG     WCI  24
WATERLOO       CLOUDY    34  32  92 SW8       29.86F WCI  27
$$

IAZ064-065-067-068-078-042200-
   EAST CENTRAL IOWA

CITY           SKY/WX    TMP DP  RH WIND       PRES   REMARKS
DAVENPORT      LGT SNOW  32  30  92 SE7       29.91F FOG     WCI  26
IOWA CITY      CLOUDY    34  32  92 S6        29.92F WCI  29
MUSCATINE *    CLOUDY    34  32  93 S5        29.92F FOG     WCI  30
QUAD CITIES    LGT SNOW  33  31  92 CALM      29.92S FOG
$$

IAZ062-063-075>077-085>089-095>099-042200-
   SOUTHEAST IOWA

CITY           SKY/WX    TMP DP  RH WIND       PRES   REMARKS
BURLINGTON     CLOUDY    33  33 100 SW6       29.92S FOG     WCI  28
FAIRFIELD *    CLOUDY    34  32  93 SW6       29.91R WCI  29
FORT MADISON * CLOUDY    34  34 100 S5        29.93S FOG     WCI  30
KEOKUK *       CLOUDY    34  34 100 SW3       29.92S FOG
OSKALOOSA *    CLOUDY    34  32  94 SW7       29.91R WCI  28
CENTERVILLE *  CLOUDY    36  34  93 SW7       29.93R WCI  30
OTTUMWA        CLOUDY    35  32  88 W8        29.90S WCI  29
WASHINGTON *   CLOUDY    34  32  93 S8        29.92R WCI  27
$$

ABBREVIATIONS USED IN REMARKS
   TC - TEMPERATURES IN CELSIUS
  WCI - WIND CHILL INDEX
   HX - HEAT INDEX
  VSB - VISIBILITY
$$





USA.gov is the U.S. government's official web portal to all federal, state and local government web resources and services.